Westminster, MD

3:01 PM EST on November 22, 2019 (GMT -0500)
Carroll County Regional-Poage

Weather History for KDMW - September, 2019

Change the Weather History Date:

Saturday, September 7, 2019

  Actual Average (KTHV) Record (KTHV)
Temperature  
Mean Temperature 70 °F -  
Max Temperature 82 °F 0 °F 91 °F (2010)
Min Temperature 57 °F - 39 °F (2000)
Cooling Degree Days 4    
Growing Degree Days 20 (Base 50)    
Moisture  
Dew Point 58 °F    
Average Humidity 67    
Maximum Humidity 94    
Minimum Humidity 39    
Precipitation  
Precipitation 0.00 in - - ()
Sea Level Pressure  
Sea Level Pressure 29.90 in    
Wind  
Wind Speed 2 mph (NW)    
Max Wind Speed 14 mph    
Max Gust Speed 18 mph    
Visibility 10 miles    
Events      
Averages and records for this station are not official NWS values.
T = Trace of Precipitation, MM = Missing Value Source: NWS Daily Summary

Daily Weather History Graph

Daily Weather History Graph

Search for Another Location

Airport or City:

Astronomy

Sep. 07, 2019 Rise Set
Actual Time 6:41 AM EDT 7:29 PM EDT
Civil Twilight 6:14 AM EDT 7:57 PM EDT
Nautical Twilight 5:41 AM EDT 8:29 PM EDT
Astronomical Twilight 5:08 AM EDT 9:02 PM EDT
Moon 3:42 PM EDT (9/7) 12:32 AM EDT (9/7)
Length of Visible Light 13h 43m
Length of Day
12h 48m
Waxing Gibbous, 65% of the Moon is Illuminated
Sep 7
Waxing Gibbous
Sep 14
Full
Sep 21
Last Quarter
Sep 28
New
Oct 5
First Quarter

Hourly Weather History & Observations

Time (EDT) Temp. Heat Index Dew Point Humidity Pressure Visibility Wind Dir Wind Speed Gust Speed Precip Events Conditions
12:00 AM 62.6 °F - 59.0 °F 88% 29.83 in 10.0 mi Calm Calm - N/A   Scattered Clouds
12:20 AM 62.6 °F - 59.0 °F 88% 29.83 in 10.0 mi Calm Calm - N/A   Clear
12:40 AM 62.6 °F - 59.0 °F 88% 29.84 in 10.0 mi Calm Calm - N/A   Clear
1:00 AM 62.6 °F - 57.2 °F 82% 29.84 in 10.0 mi Calm Calm - N/A   Clear
1:20 AM 60.8 °F - 57.2 °F 88% 29.84 in 10.0 mi Calm Calm - N/A   Clear
1:40 AM - - - N/A% 29.84 in 10.0 mi Calm Calm - N/A   Clear
2:00 AM 60.8 °F - 57.2 °F 88% 29.84 in 10.0 mi Calm Calm - N/A   Scattered Clouds
2:20 AM 60.8 °F - 57.2 °F 88% 29.83 in 10.0 mi Calm Calm - N/A   Mostly Cloudy
2:40 AM - - - N/A% 29.83 in 10.0 mi Calm Calm - N/A   Overcast
3:00 AM 62.6 °F - 57.2 °F 82% 29.84 in 10.0 mi Calm Calm - N/A   Overcast
3:20 AM 60.8 °F - - N/A% 29.83 in 10.0 mi Calm Calm - N/A   Overcast
3:40 AM 60.8 °F - - N/A% 29.83 in 10.0 mi Calm Calm - N/A   Mostly Cloudy
4:00 AM 60.8 °F - 57.2 °F 88% 29.83 in 10.0 mi Calm Calm - N/A   Scattered Clouds
4:20 AM 60.8 °F - 57.2 °F 88% 29.83 in 10.0 mi Calm Calm - N/A   Clear
4:40 AM 60.8 °F - 57.2 °F 88% - 10.0 mi Calm Calm - N/A   Clear
4:55 AM 59.0 °F - 57.2 °F 94% 2.98 in 10.0 mi Calm Calm - N/A   Clear
5:20 AM 59.0 °F - 57.2 °F 94% 29.84 in 10.0 mi Calm Calm - N/A   Clear
5:40 AM 59.0 °F - 57.2 °F 94% 29.85 in 10.0 mi Calm Calm - N/A   Clear
6:00 AM 59.0 °F - 57.2 °F 94% 29.85 in 10.0 mi Calm Calm - N/A   Clear
6:20 AM 59.0 °F - 57.2 °F 94% 29.85 in 10.0 mi Calm Calm - N/A   Clear
7:00 AM 57.2 °F - 55.4 °F 94% 29.87 in 10.0 mi Calm Calm - N/A   Clear
7:20 AM 57.2 °F - 55.4 °F 94% 29.88 in 10.0 mi Calm Calm - N/A   Clear
7:40 AM 59.0 °F - 57.2 °F 94% 29.88 in 10.0 mi Calm Calm - N/A   Clear
8:00 AM 60.8 °F - 57.2 °F 88% 29.89 in 10.0 mi Calm Calm - N/A   Clear
8:20 AM 60.8 °F - 57.2 °F 88% 29.89 in 10.0 mi Calm Calm - N/A   Clear
8:40 AM 62.6 °F - 57.2 °F 82% 29.90 in 10.0 mi Calm Calm - N/A   Clear
9:00 AM 64.4 °F - 59.0 °F 83% 29.90 in 10.0 mi NW 3.5 mph - N/A   Clear
9:20 AM 68.0 °F - 60.8 °F 78% 29.91 in 10.0 mi NW 5.8 mph - N/A   Clear
9:40 AM 68.0 °F - 60.8 °F 78% 29.91 in 10.0 mi NW 5.8 mph - N/A   Clear
10:00 AM 69.8 °F - 60.8 °F 73% 29.91 in 10.0 mi NNW 5.8 mph - N/A   Clear
10:20 AM 69.8 °F - 60.8 °F 73% 29.92 in 10.0 mi NW 5.8 mph - N/A   Clear
10:40 AM 71.6 °F - 59.0 °F 64% 29.92 in 10.0 mi North 5.8 mph - N/A   Clear
11:00 AM 71.6 °F - 59.0 °F 64% 29.92 in 10.0 mi North 6.9 mph - N/A   Clear
11:20 AM 71.6 °F - 59.0 °F 64% 29.92 in 10.0 mi NNW 6.9 mph - N/A   Clear
11:40 AM 73.4 °F - 60.8 °F 65% 29.92 in 10.0 mi North 5.8 mph - N/A   Scattered Clouds
12:00 PM 73.4 °F - 60.8 °F 65% 20.31 in 10.0 mi NNW 6.9 mph - N/A   Scattered Clouds
12:20 PM 75.2 °F - 59.0 °F 57% 29.91 in 10.0 mi North 6.9 mph - N/A   Scattered Clouds
12:40 PM 75.2 °F - 57.2 °F 53% 29.90 in 10.0 mi WNW 4.6 mph - N/A   Scattered Clouds
1:00 PM 77.0 °F - 57.2 °F 50% 29.90 in 10.0 mi WNW 9.2 mph - N/A   Unknown
1:20 PM 78.8 °F - 57.2 °F 47% 29.90 in 10.0 mi NNW 5.8 mph - N/A   Scattered Clouds
1:40 PM 78.8 °F - 57.2 °F 47% 29.90 in 10.0 mi West 9.2 mph - N/A   Scattered Clouds
2:00 PM 80.6 °F 80.5 °F 55.4 °F 42% 29.89 in 10.0 mi NW 8.1 mph - N/A   Scattered Clouds
2:20 PM 82.4 °F 81.7 °F 55.4 °F 39% 29.89 in 10.0 mi West 13.8 mph 18.4 mph N/A   Scattered Clouds
2:40 PM 82.4 °F 81.7 °F 55.4 °F 39% 29.89 in 10.0 mi NW 10.4 mph - N/A   Scattered Clouds
3:00 PM 80.6 °F 80.5 °F 55.4 °F 42% 29.90 in 10.0 mi NW 8.1 mph 16.1 mph N/A   Mostly Cloudy
3:20 PM 80.6 °F 80.5 °F 55.4 °F 42% 29.90 in 10.0 mi NW 5.8 mph - N/A   Mostly Cloudy
3:40 PM 80.6 °F 80.5 °F 55.4 °F 42% 29.89 in 10.0 mi NW 8.1 mph - N/A   Mostly Cloudy
4:00 PM 80.6 °F 80.5 °F 55.4 °F 42% 29.90 in 10.0 mi WNW 9.2 mph - N/A   Scattered Clouds
4:20 PM 82.4 °F 81.7 °F 55.4 °F 39% 29.90 in 10.0 mi NW 6.9 mph - N/A   Mostly Cloudy
4:40 PM 80.6 °F 80.8 °F 57.2 °F 45% 29.90 in 10.0 mi NNW 4.6 mph - N/A   Overcast
5:00 PM 80.6 °F 80.8 °F 57.2 °F 45% 29.89 in 10.0 mi NW 4.6 mph - N/A   Mostly Cloudy
5:20 PM 80.6 °F 80.5 °F 55.4 °F 42% 29.89 in 10.0 mi WNW 8.1 mph - N/A   Overcast
5:40 PM 80.6 °F 80.5 °F 55.4 °F 42% 29.90 in 10.0 mi NW 6.9 mph - N/A   Overcast
6:00 PM 80.6 °F 80.5 °F 55.4 °F 42% 29.91 in 10.0 mi NW 6.9 mph - N/A   Mostly Cloudy
6:20 PM 80.6 °F 80.5 °F 55.4 °F 42% 29.91 in 10.0 mi Calm Calm - N/A   Scattered Clouds
6:40 PM 78.8 °F - 57.2 °F 47% 29.92 in 10.0 mi NW 3.5 mph - N/A   Clear
7:00 PM 78.8 °F - 57.2 °F 47% 29.93 in 10.0 mi NW 3.5 mph - N/A   Clear
7:20 PM 77.0 °F - 57.2 °F 50% 29.93 in 10.0 mi Calm Calm - N/A   Scattered Clouds
7:40 PM 75.2 °F - 57.2 °F 53% 29.94 in 10.0 mi Calm Calm - N/A   Scattered Clouds
8:00 PM 75.2 °F - 57.2 °F 53% 29.94 in 10.0 mi Calm Calm - N/A   Scattered Clouds
8:20 PM 73.4 °F - 57.2 °F 57% 29.95 in 10.0 mi Calm Calm - N/A   Clear
8:40 PM 73.4 °F - 57.2 °F 57% 29.95 in 10.0 mi Calm Calm - N/A   Scattered Clouds
9:00 PM 71.6 °F - 57.2 °F 60% 29.96 in 10.0 mi Calm Calm - N/A   Scattered Clouds
9:40 PM 73.4 °F - 57.2 °F 57% 29.97 in 10.0 mi Calm Calm - N/A   Mostly Cloudy
10:00 PM 69.8 °F - 60.8 °F 73% 29.97 in 10.0 mi Calm Calm - N/A   Overcast
10:20 PM 69.8 °F - 60.8 °F 73% 29.97 in 10.0 mi Calm Calm - N/A   Overcast
10:40 PM 69.8 °F - 60.8 °F 73% 29.98 in 10.0 mi Calm Calm - N/A   Overcast
11:00 PM 69.8 °F - 60.8 °F 73% 29.98 in 10.0 mi Calm Calm - N/A   Mostly Cloudy
11:20 PM 69.8 °F - 57.2 °F 64% 29.99 in 10.0 mi WSW 4.6 mph - N/A   Scattered Clouds
11:40 PM 69.8 °F - 57.2 °F 64% 29.99 in 10.0 mi WSW 4.6 mph - N/A   Scattered Clouds